Temp
8 8 8 8 8 7 9 9 11 11 10 10 9 9 8 8 7 7 7 7 6 5 4 4 3 3 3 3 3 3 3 3 3 3 2 2 2 2 2 2 2 2 2 1
3 7 8 8 8 8 9 8 9 8 9 9 10 9 7 7 7 6 7 7 6 5 4 4 4 4 4 4 4 3 3 3 3 2 2 2 2 2 2 2 2 2 1 1
7 7 8 8 9 8 8 9 10 9 12 8 8 8 8 8 7 7 8 7 6 6 5 5 4 5 4 4 4 3 3 3 3 2 2 2 2 2 2 2 1 0 -1 -2
4 7 7 10 8 9 9 9 9 10 10 10 10 9 9 9 9 9 8 8 7 6 6 5 5 5 5 4 4 3 3 3 2 2 2 1 1 1 1 1 0 -0 -0 -1
5 6 8 9 7 8 8 10 10 10 10 10 8 7 7 9 10 11 9 9 8 7 6 6 5 5 5 4 4 3 3 3 2 1 1 0 1 0 -0 -1 -1 -1 -2 -2
2 6 7 10 8 7 9 10 10 9 10 8 7 10 11 11 10 10 9 9 7 6 6 6 5 5 5 4 4 3 3 2 2 1 0 -0 -0 -1 -2 -3 -3 -3 -4 -5
2 7 8 8 8 7 10 11 8 8 9 8 9 11 12 11 10 10 9 8 7 6 6 6 5 5 4 4 4 3 2 2 1 0 -0 -1 -1 -2 -3 -3 -3 -3 -3 -4
3 4 8 7 7 9 9 8 8 8 8 7 9 10 11 11 10 9 8 7 7 6 6 5 4 4 4 4 4 3 2 1 1 0 -0 -0 -1 -2 -3 -3 -3 -3 -3 -3
7 7 7 7 8 9 8 8 9 9 9 7 7 9 10 11 10 9 8 7 7 6 5 5 4 4 4 4 4 3 2 1 1 0 -0 -1 -1 -2 -3 -4 -4 -5 -5 -6
6 8 6 7 9 9 9 10 10 10 10 9 8 8 10 11 9 8 7 7 6 6 5 5 4 4 4 4 3 3 2 1 1 1 1 -0 -1 -2 -3 -4 -5 -5 -6 -7
6 6 6 7 9 10 10 10 10 10 11 11 9 8 9 10 9 8 8 7 6 6 5 4 4 4 3 3 3 2 1 1 1 0 1 1 0 -0 -1 -3 -5 -6 -7 -7
7 9 9 9 11 10 10 11 10 10 10 11 9 9 9 9 9 9 7 7 6 5 4 4 4 3 3 3 2 1 1 1 0 0 0 0 0 1 -0 -2 -3 -4 -6 -7
8 10 10 11 10 10 10 10 10 10 10 11 10 9 9 9 9 8 7 7 6 5 5 4 4 3 3 2 2 1 1 1 0 -1 -1 -1 -1 -2 -1 -2 -4 -5 -6 -5
9 10 8 9 10 10 10 10 10 10 10 10 9 8 8 9 8 8 7 7 6 5 4 4 3 3 2 2 2 1 1 0 -0 -1 -2 -2 -2 -3 -3 -6 -7 -6 -6 -7
9 10 10 10 10 10 10 10 10 9 10 9 9 8 8 8 8 8 7 6 5 4 4 3 3 3 2 2 2 1 0 -0 -1 -1 -2 -2 -3 -3 -4 -7 -7 -7 -8 -7
8 9 9 9 9 9 9 9 9 9 10 9 10 9 9 9 8 8 7 6 5 5 4 4 3 2 2 2 1 1 -0 -1 -1 -1 -1 -2 -3 -3 -5 -7 -8 -8 -8 -8
7 6 7 7 8 9 9 9 9 10 9 10 10 10 9 8 8 7 7 6 5 5 4 3 2 2 2 1 1 0 -0 -1 -1 -1 -2 -2 -3 -4 -6 -7 -8 -7 -8 -8
7 7 9 9 9 9 9 9 9 9 9 10 10 9 9 8 8 7 6 6 4 4 3 3 2 2 2 1 0 -0 -1 -1 -1 -1 -2 -2 -3 -4 -6 -7 -7 -8 -8 -8
6 7 7 8 8 8 9 9 9 9 9 8 9 9 9 9 8 7 6 5 4 4 3 3 2 2 1 1 0 -0 -1 -1 -1 -2 -2 -2 -3 -4 -6 -7 -7 -8 -8 -8
7 7 7 8 8 8 8 8 8 9 9 9 8 7 8 8 7 7 6 5 5 5 3 2 2 2 1 0 -0 -1 -1 -1 -2 -2 -2 -3 -4 -6 -7 -7 -8 -8 -8 -7
6 7 7 8 8 7 8 8 8 8 9 9 8 8 8 7 7 6 5 4 4 3 2 2 2 1 1 -0 -1 -1 -2 -2 -2 -2 -3 -3 -4 -6 -7 -8 -8 -8 -8 -7
6 6 7 7 7 7 7 7 7 8 8 8 8 7 7 6 6 5 4 5 4 3 2 2 1 1 0 -1 -1 -2 -2 -2 -2 -3 -3 -4 -4 -6 -7 -9 -9 -8 -8 -7
7 6 7 7 7 7 7 7 7 7 7 7 7 8 8 8 7 5 3 3 3 3 2 2 1 0 -0 -1 -2 -2 -2 -2 -3 -3 -4 -4 -5 -6 -7 -8 -9 -9 -8 -8
6 6 6 6 6 6 6 6 6 6 6 7 6 6 7 6 4 3 4 3 3 2 2 1 0 -1 -1 -2 -2 -2 -3 -3 -4 -4 -4 -4 -5 -6 -7 -8 -8 -9 -8 -8
5 5 5 5 5 5 6 6 6 5 6 5 5 5 5 4 5 4 3 2 2 2 1 0 -1 -1 -2 -2 -3 -3 -3 -4 -4 -4 -5 -5 -5 -6 -7 -8 -8 -9 -8 -8
4 5 5 5 5 5 5 5 5 5 5 5 4 4 3 3 3 3 2 2 1 1 -0 -1 -1 -2 -2 -3 -3 -4 -4 -4 -5 -5 -5 -5 -5 -6 -7 -8 -8 -9 -8 -8
4 5 5 4 4 4 4 4 4 4 4 4 4 2 1 2 2 2 2 1 0 -0 -1 -2 -2 -3 -3 -4 -4 -4 -5 -5 -5 -5 -5 -6 -6 -6 -7 -7 -7 -7 -8 -8
Height
1507 1508 1510 1512 1515 1522 1519 1522 1517 1516 1521 1521 1526 1530 1534 1540 1545 1548 1552 1555 1557 1559 1560 1561 1561 1561 1560 1559 1558 1556 1554 1551 1548 1545 1543 1540 1537 1534 1530 1526 1522 1518 1514 1509
1522 1510 1509 1510 1514 1516 1517 1520 1518 1521 1520 1518 1522 1529 1533 1536 1540 1544 1547 1551 1554 1556 1557 1558 1559 1559 1558 1558 1556 1555 1553 1550 1547 1545 1542 1538 1535 1531 1527 1523 1519 1515 1510 1505
1509 1511 1509 1511 1502 1509 1509 1509 1510 1513 1502 1513 1518 1522 1525 1529 1534 1538 1542 1546 1549 1552 1554 1555 1556 1556 1556 1556 1554 1553 1551 1548 1546 1543 1540 1537 1533 1529 1524 1520 1515 1510 1505 1501
1517 1510 1514 1490 1494 1494 1497 1500 1502 1501 1503 1504 1507 1511 1517 1522 1525 1531 1536 1541 1545 1548 1550 1551 1553 1554 1554 1553 1552 1551 1549 1546 1544 1541 1538 1535 1530 1526 1522 1517 1513 1508 1503 1497
1507 1508 1498 1489 1492 1492 1495 1486 1489 1492 1498 1501 1505 1511 1512 1514 1519 1524 1530 1536 1541 1544 1546 1548 1550 1551 1552 1551 1550 1548 1546 1544 1541 1539 1536 1532 1527 1523 1519 1514 1510 1505 1500 1495
1515 1499 1497 1480 1483 1485 1488 1486 1478 1482 1487 1495 1502 1504 1499 1506 1513 1520 1526 1532 1536 1540 1542 1545 1547 1548 1549 1548 1547 1545 1544 1542 1539 1537 1533 1529 1525 1521 1516 1511 1507 1502 1496 1492
1508 1489 1485 1480 1481 1484 1487 1481 1476 1477 1480 1487 1489 1484 1496 1501 1507 1515 1522 1528 1533 1536 1539 1542 1544 1545 1546 1545 1544 1543 1541 1539 1537 1534 1530 1527 1522 1518 1513 1508 1503 1498 1492 1487
1502 1498 1484 1474 1481 1480 1473 1472 1473 1474 1475 1476 1481 1488 1493 1496 1502 1510 1516 1522 1528 1532 1535 1538 1540 1542 1542 1542 1541 1539 1538 1536 1533 1530 1527 1523 1519 1515 1510 1505 1500 1494 1488 1483
1473 1471 1466 1467 1467 1469 1471 1472 1472 1472 1472 1474 1480 1484 1489 1493 1498 1505 1511 1517 1523 1528 1531 1534 1536 1538 1538 1538 1537 1536 1534 1532 1529 1527 1523 1520 1515 1511 1506 1502 1496 1490 1484 1478
1467 1463 1464 1465 1466 1467 1468 1470 1471 1471 1471 1472 1475 1481 1486 1490 1495 1501 1508 1513 1519 1523 1527 1530 1532 1534 1535 1534 1534 1533 1531 1529 1526 1523 1519 1516 1511 1507 1503 1498 1492 1486 1481 1476
1460 1460 1462 1461 1461 1463 1465 1466 1467 1469 1469 1470 1473 1477 1482 1486 1491 1497 1503 1509 1514 1519 1523 1527 1529 1530 1531 1531 1531 1530 1528 1525 1522 1519 1515 1511 1508 1503 1499 1494 1489 1483 1479 1474
1451 1451 1453 1455 1457 1460 1461 1460 1461 1464 1466 1468 1470 1474 1479 1484 1488 1493 1500 1506 1511 1516 1520 1522 1524 1526 1527 1527 1527 1526 1524 1521 1518 1515 1511 1506 1502 1498 1494 1489 1485 1481 1476 1471
1443 1447 1449 1452 1455 1456 1457 1458 1458 1460 1463 1465 1466 1470 1475 1480 1485 1491 1497 1502 1507 1511 1515 1518 1520 1521 1523 1523 1522 1521 1519 1516 1514 1511 1507 1502 1497 1491 1485 1482 1479 1475 1471 1466
1441 1443 1446 1448 1450 1452 1454 1455 1456 1457 1459 1461 1464 1467 1472 1477 1483 1488 1493 1498 1504 1508 1511 1513 1515 1517 1518 1518 1517 1516 1514 1512 1510 1507 1503 1498 1493 1488 1482 1476 1470 1467 1465 1460
1434 1436 1439 1443 1445 1448 1449 1451 1452 1453 1455 1457 1460 1464 1468 1474 1479 1485 1491 1495 1500 1503 1506 1509 1511 1513 1513 1513 1513 1512 1510 1508 1506 1503 1499 1495 1490 1485 1479 1474 1469 1465 1460 1455
1431 1432 1434 1436 1439 1442 1444 1446 1447 1449 1451 1454 1457 1461 1465 1471 1477 1482 1486 1491 1494 1497 1501 1504 1506 1508 1509 1509 1508 1507 1506 1504 1501 1498 1495 1491 1486 1481 1476 1471 1467 1463 1458 1451
1426 1426 1427 1429 1433 1436 1438 1440 1442 1443 1446 1449 1453 1458 1462 1467 1472 1477 1481 1485 1490 1494 1497 1500 1502 1503 1504 1504 1504 1503 1502 1500 1497 1494 1491 1486 1482 1477 1472 1467 1464 1460 1455 1450
1419 1420 1422 1423 1426 1429 1432 1433 1436 1438 1440 1444 1448 1452 1457 1461 1465 1470 1475 1480 1485 1489 1492 1495 1497 1498 1499 1499 1499 1499 1498 1496 1493 1490 1486 1483 1478 1474 1469 1465 1461 1457 1452 1445
1410 1410 1414 1417 1420 1423 1426 1428 1430 1432 1435 1438 1442 1446 1451 1455 1460 1464 1469 1474 1479 1483 1487 1490 1492 1493 1494 1494 1495 1494 1493 1491 1489 1486 1482 1479 1475 1471 1466 1462 1458 1454 1449 1441
1399 1402 1405 1408 1412 1416 1418 1421 1425 1427 1429 1432 1436 1440 1444 1449 1454 1459 1464 1468 1473 1478 1483 1486 1488 1489 1490 1490 1489 1489 1487 1486 1484 1481 1478 1474 1470 1466 1461 1458 1455 1450 1445 1438
1387 1393 1396 1399 1402 1407 1411 1415 1418 1421 1423 1425 1429 1432 1437 1442 1447 1453 1458 1463 1469 1474 1477 1480 1483 1484 1485 1485 1485 1484 1482 1481 1478 1476 1472 1469 1465 1461 1457 1454 1451 1447 1441 1435
1375 1381 1385 1390 1394 1399 1404 1407 1411 1415 1418 1420 1423 1426 1431 1435 1441 1447 1454 1459 1464 1468 1472 1475 1477 1479 1480 1481 1480 1479 1478 1475 1473 1470 1467 1464 1460 1457 1454 1451 1447 1443 1437 1432
1367 1371 1376 1381 1386 1392 1398 1401 1405 1409 1412 1415 1418 1421 1425 1429 1434 1439 1446 1454 1460 1464 1467 1470 1472 1474 1475 1476 1475 1475 1473 1471 1468 1465 1462 1459 1456 1452 1449 1446 1443 1439 1434 1429
1363 1367 1371 1376 1381 1385 1389 1394 1399 1403 1407 1410 1413 1417 1420 1425 1431 1437 1444 1450 1455 1460 1463 1466 1468 1470 1471 1471 1471 1470 1468 1466 1463 1461 1457 1454 1451 1448 1445 1442 1438 1434 1430 1426
1360 1364 1368 1370 1373 1377 1382 1386 1390 1394 1398 1403 1407 1411 1416 1422 1428 1432 1441 1447 1452 1457 1460 1462 1464 1466 1466 1466 1466 1465 1463 1461 1459 1456 1453 1450 1446 1443 1440 1438 1434 1431 1427 1423
1356 1359 1362 1365 1367 1371 1374 1378 1381 1385 1390 1395 1400 1405 1411 1418 1425 1433 1439 1444 1449 1453 1455 1458 1460 1461 1462 1461 1461 1459 1458 1456 1454 1451 1448 1445 1442 1439 1436 1434 1431 1427 1424 1420
1352 1354 1356 1359 1361 1364 1368 1372 1375 1379 1384 1390 1395 1401 1408 1416 1424 1431 1436 1441 1445 1449 1452 1454 1456 1456 1456 1456 1455 1454 1453 1451 1448 1446 1443 1440 1437 1434 1432 1429 1426 1424 1421 1417
Wind_Speed
3 4 4 6 13 16 14 6 8 3 11 16 18 17 25 22 18 19 21 19 17 13 10 8 5 3 3 6 10 14 16 18 19 20 20 21 22 22 22 22 22 22 22 21
2 4 3 2 8 16 16 9 11 4 7 9 23 21 19 22 22 22 24 22 18 14 11 9 6 3 3 6 10 13 15 15 16 17 18 20 22 22 22 21 21 21 21 21
4 4 4 5 16 15 12 12 15 14 13 12 11 24 27 26 26 27 27 23 20 15 11 9 6 2 2 5 9 13 14 14 14 15 17 19 21 22 22 22 23 23 22 22
3 6 4 4 1 13 17 9 19 12 9 17 21 30 30 32 33 31 29 25 20 16 13 11 7 3 2 6 10 13 13 14 14 16 18 21 23 25 23 23 23 23 23 24
5 5 4 4 6 8 12 11 21 23 14 18 11 13 17 33 35 29 30 26 20 16 13 12 8 4 3 6 10 12 12 13 15 18 20 23 25 25 24 24 24 24 24 25
3 5 7 3 3 9 10 6 7 28 23 19 17 11 10 33 36 32 30 26 23 19 16 13 10 6 3 6 9 10 11 13 15 17 20 22 23 24 23 23 24 24 25 23
3 3 5 6 4 14 6 3 1 8 24 27 16 27 14 26 34 32 30 28 23 20 16 13 10 7 4 5 8 9 11 13 15 18 20 22 24 24 24 25 26 27 27 24
3 2 8 11 9 7 2 1 2 4 17 35 31 23 18 14 33 34 33 30 25 21 18 15 11 8 4 5 7 8 11 13 15 18 20 22 24 24 24 26 27 27 27 29
9 6 1 23 6 17 2 2 3 5 3 23 28 24 23 21 32 37 36 32 25 21 18 16 13 9 6 5 7 9 11 14 16 19 20 21 23 25 26 27 27 25 28 30
4 6 10 13 19 15 13 14 12 8 3 11 23 26 25 27 33 38 36 32 27 23 20 17 13 10 7 6 7 9 12 15 17 20 21 22 24 24 25 26 27 27 28 29
2 3 2 13 22 18 14 15 17 14 9 7 16 25 27 29 35 38 36 31 27 23 20 16 13 10 7 7 8 10 13 16 18 19 20 22 23 23 24 25 26 26 26 28
4 14 10 5 12 8 11 11 15 16 15 13 16 24 29 28 34 37 35 30 26 22 19 16 13 11 9 8 9 11 14 16 18 20 22 24 27 29 29 28 26 25 25 29
10 19 25 21 8 7 9 8 11 14 17 16 17 22 29 30 33 35 32 28 25 21 18 16 14 12 10 9 10 12 15 16 18 21 23 25 28 32 34 31 28 27 28 31
23 20 14 19 15 12 11 9 9 13 18 18 17 21 24 29 32 32 29 25 21 20 19 17 15 12 11 10 11 12 14 16 19 21 22 26 28 31 30 30 32 32 30 33
29 29 23 20 18 18 17 14 13 15 18 17 16 21 27 30 31 28 26 24 22 20 20 18 16 13 11 11 12 12 14 16 18 20 22 26 27 29 27 25 27 29 34 36
27 29 29 28 24 20 18 16 17 20 22 22 22 23 26 27 25 24 26 27 26 23 21 18 15 13 12 11 11 12 14 16 17 19 22 25 27 28 25 24 24 28 32 38
27 26 30 29 26 25 26 25 23 24 25 27 27 27 30 32 30 28 28 29 26 20 17 16 14 14 12 12 11 13 14 15 17 19 22 25 28 27 25 24 22 27 30 36
27 32 32 30 27 24 24 23 23 25 26 28 32 33 34 35 33 31 31 31 28 25 22 18 16 14 12 11 12 13 14 15 17 20 23 25 27 26 22 21 23 27 32 36
34 33 36 37 35 31 29 29 23 22 25 29 35 36 35 35 35 34 33 34 31 27 22 19 16 14 12 12 12 13 14 15 18 21 23 23 24 23 22 22 22 25 31 35
34 31 31 33 31 29 26 20 18 20 24 27 30 34 37 37 37 36 35 36 31 25 19 17 15 14 12 12 12 12 14 16 19 21 23 23 23 23 22 21 22 24 30 35
46 38 33 35 35 35 36 33 28 27 24 27 28 28 29 33 35 35 37 36 29 24 21 18 16 14 13 12 12 12 14 17 19 21 23 22 23 22 22 20 22 23 32 34
41 49 49 44 40 35 27 25 24 24 21 23 26 27 28 29 32 33 35 34 30 24 20 18 15 14 12 11 12 12 15 17 19 21 23 23 22 21 21 19 20 23 29 31
38 43 46 45 40 33 25 26 24 18 17 22 26 28 28 27 30 35 38 32 26 22 19 17 15 13 11 11 12 13 15 17 19 21 21 21 20 20 19 20 20 22 27 29
32 31 33 33 31 29 28 27 25 22 23 24 25 29 30 29 31 34 34 31 27 21 17 16 14 12 11 11 12 14 16 17 18 20 21 21 21 20 19 19 22 23 25 27
26 23 22 23 26 28 29 29 29 28 29 29 28 28 29 28 32 35 33 26 22 19 17 15 12 11 11 11 12 14 16 17 18 19 20 21 21 20 19 20 21 22 24 25
21 21 20 21 22 23 24 27 27 29 31 31 28 26 28 29 32 33 29 24 20 17 15 13 11 10 11 11 13 14 15 16 17 19 20 21 21 20 19 20 20 21 23 24
18 19 19 20 21 21 22 23 26 29 31 31 28 27 29 31 31 29 24 21 18 15 14 12 11 10 10 12 13 14 15 16 18 20 21 21 20 20 19 20 20 19 22 23
Wind_Direction
118 124 138 159 179 184 204 174 187 194 206 194 192 190 191 191 190 188 186 189 191 188 183 173 157 112 63 33 18 7 1 357 358 355 351 349 348 347 345 343 342 340 339 338
55 127 155 169 192 199 214 210 240 208 240 216 201 196 191 193 191 189 192 195 193 192 186 175 162 130 48 17 2 358 353 353 352 348 347 347 346 346 344 340 338 338 340 340
173 153 134 283 216 195 206 212 215 218 227 164 180 194 200 196 196 196 198 197 197 197 190 183 177 165 9 354 353 350 350 354 355 357 355 352 350 347 345 345 345 343 341 337
131 144 196 236 153 207 209 216 213 227 198 189 196 201 204 205 202 204 202 200 199 199 196 193 191 203 315 342 346 347 351 355 357 356 356 355 354 354 352 351 349 343 339 336
153 198 297 238 191 169 187 245 216 222 209 199 195 181 214 211 211 210 205 203 203 200 200 198 200 215 280 328 339 345 351 353 354 355 355 355 354 354 352 351 349 345 342 342
157 158 203 254 165 159 152 274 213 213 209 185 165 200 206 208 211 210 204 200 198 201 201 199 203 214 267 324 338 346 347 348 349 351 351 352 353 355 353 350 347 344 339 335
155 193 272 229 161 163 159 228 173 210 206 187 195 210 213 207 206 205 198 196 198 204 204 199 203 212 262 320 335 338 341 343 347 348 347 348 350 353 354 350 349 347 342 338
121 155 240 168 141 192 179 134 313 304 207 198 207 209 203 201 200 194 193 194 200 200 200 201 204 213 250 301 325 336 340 341 343 345 344 344 346 349 352 351 349 348 345 343
190 198 209 179 175 203 156 332 338 342 253 213 202 205 202 201 193 192 194 195 198 200 201 202 206 214 241 291 322 331 337 339 340 343 342 342 343 343 344 345 346 346 346 344
145 203 221 207 224 234 242 258 276 308 304 207 208 206 202 196 191 191 193 196 198 199 202 206 209 218 241 286 314 325 330 336 339 341 342 342 341 340 338 341 344 346 347 340
254 266 228 228 227 222 251 259 253 250 252 234 211 204 203 196 194 194 195 196 201 204 204 206 213 224 248 285 309 320 328 334 336 339 342 342 341 337 340 342 343 343 341 340
197 204 205 202 203 210 253 269 244 234 237 232 219 212 206 203 198 196 195 197 200 202 204 209 214 231 252 277 302 316 327 331 333 334 336 340 343 344 343 341 342 345 343 348
198 219 223 238 225 234 259 273 234 240 231 239 225 214 212 205 199 196 197 199 203 208 207 211 217 232 250 274 298 313 324 327 328 331 334 338 342 342 340 340 342 347 349 350
222 230 218 230 235 245 260 258 255 239 231 233 231 210 206 201 196 195 198 202 204 204 208 215 223 233 249 274 296 310 319 323 326 329 332 336 339 340 338 337 341 345 348 346
222 225 231 236 243 246 248 252 250 229 223 221 210 202 195 197 195 197 199 202 202 207 213 218 226 235 251 275 293 306 314 320 324 328 332 334 336 338 338 337 341 342 343 347
237 228 234 237 242 241 245 241 243 229 219 213 200 196 194 196 195 196 200 200 204 213 218 221 228 237 255 275 289 303 312 319 323 327 331 333 335 337 336 336 338 339 340 340
243 237 233 238 237 242 246 251 246 236 221 215 203 199 199 199 200 198 200 205 211 215 218 224 230 241 260 273 289 302 311 315 321 327 330 331 332 333 333 339 337 339 338 336
250 249 245 236 234 238 246 243 238 235 227 217 213 208 206 207 207 204 206 208 208 211 217 222 230 244 257 272 289 302 307 314 322 326 328 330 330 329 330 335 341 342 338 336
244 239 241 245 246 251 250 247 236 236 232 225 221 218 218 219 217 213 210 208 209 213 218 222 232 244 255 272 288 297 305 314 320 323 326 328 329 333 332 338 342 341 336 339
237 232 235 241 243 241 216 227 254 248 236 233 232 229 226 226 223 218 213 212 213 217 215 226 236 243 255 271 288 294 306 315 320 323 325 326 329 331 332 338 340 338 337 343
231 226 231 233 240 237 238 247 250 240 235 229 228 229 231 230 226 219 209 207 207 207 215 225 234 244 258 274 285 296 309 315 319 323 325 326 325 326 331 338 339 336 337 343
230 227 232 234 240 246 240 235 229 226 233 235 230 227 226 224 219 212 212 210 204 209 218 223 232 245 261 274 284 297 308 315 319 323 325 324 326 328 332 334 338 329 336 343
226 225 229 233 235 238 233 225 218 222 241 239 236 229 222 219 213 206 201 199 204 211 215 224 235 247 261 273 287 299 308 313 319 323 325 325 328 328 328 333 331 331 337 342
234 237 240 239 234 233 226 219 226 238 242 240 236 229 222 214 205 203 204 200 203 208 217 226 235 247 259 274 288 299 306 312 317 321 324 326 328 329 327 329 331 333 337 341
240 239 234 230 231 234 235 236 237 231 226 226 224 223 220 215 211 197 196 199 202 211 217 225 236 247 262 277 290 298 306 312 317 320 322 324 325 326 324 327 330 330 335 338
229 229 230 231 233 231 229 223 220 215 213 211 211 212 209 203 196 191 190 196 204 209 217 228 237 250 267 281 293 302 307 310 315 318 320 323 323 323 321 321 325 327 333 333
217 221 228 229 225 221 219 219 213 208 206 206 203 193 189 182 182 186 190 196 201 209 217 226 239 255 272 286 295 302 305 310 314 316 318 321 322 320 319 317 322 328 330 329